Slidell, LA

8:52 AM CST on February 06, 2016 (GMT -0600)
Slidell

Weather History for KASD - December, 2012

Change the Weather History Date:

Thursday, December 6, 2012

  Actual Average (KNEW) Record (KNEW)
Temperature  
Mean Temperature 64 °F 57 °F  
Max Temperature 75 °F 66 °F 82 °F (2013)
Min Temperature 53 °F 49 °F 32 °F (1962)
Degree Days  
Heating Degree Days 1 9  
Month to date heating degree days 50  
Since 1 July heating degree days 214  
Cooling Degree Days 0 1  
Month to date cooling degree days 6  
Year to date cooling degree days 2984  
Growing Degree Days 14 (Base 50)    
Moisture  
Dew Point 59 °F    
Average Humidity 92    
Maximum Humidity 100    
Minimum Humidity 57    
Precipitation  
Precipitation 0.01 in 0.16 in 1.79 in (1989)
Month to date precipitation 0.99  
Year to date precipitation 58.20  
Snow  
Snow 0.00 in - - ()
Month to date snowfall  
Since 1 July snowfall  
Snow Depth -    
Sea Level Pressure  
Sea Level Pressure 29.99 in    
Wind  
Wind Speed 3 mph (ENE)    
Max Wind Speed 14 mph    
Max Gust Speed 18 mph    
Visibility 6 miles    
Events Fog    
T = Trace of Precipitation, MM = Missing Value Source: NWS Daily Summary

Daily Weather History Graph

Daily Weather History Graph

Search for Another Location

Airport or City:

Trip Planner

Search our weather history database for the weather conditions in past years. The results will help you decide how hot, cold, wet, or windy it might be!

Date:

Astronomy

Dec. 06, 2012 Rise Set
Actual Time 6:42 AM CST 4:58 PM CST
Civil Twilight 6:16 AM CST 5:24 PM CST
Nautical Twilight 5:46 AM CST 5:54 PM CST
Astronomical Twilight 5:17 AM CST 6:23 PM CST
Moon No Moon Rise 11:59 AM CST
Length of Visible Light 11h 08m
Length of Day
10h 16m
Waning Gibbous, 49% of the Moon is Illuminated
Dec 6
Waning Gibbous
Dec 13
New
Dec 19
First Quarter
Dec 28
Full
Jan 4
Last Quarter

Hourly Weather History & Observations

Time (CST) Temp. Dew Point Humidity Pressure Visibility Wind Dir Wind Speed Gust Speed Precip Events Conditions
12:31 AM 59.0 °F 59.0 °F 100% 30.02 in 9.0 mi NNE 3.5 mph - 0.01 in   Mostly Cloudy
12:40 AM 59.0 °F 59.0 °F 100% 30.02 in 8.0 mi North 4.6 mph - 0.01 in   Scattered Clouds
12:53 AM 59.0 °F 59.0 °F 100% 30.02 in 6.0 mi NNE 3.5 mph - 0.01 in   Partly Cloudy
1:53 AM 59.0 °F 59.0 °F 100% 30.01 in 10.0 mi Calm Calm - N/A   Scattered Clouds
2:53 AM 57.0 °F 57.0 °F 100% 30.00 in 6.0 mi Calm Calm - N/A   Clear
3:06 AM 55.4 °F 55.4 °F 100% 30.00 in 1.8 mi Calm Calm - N/A   Partly Cloudy
3:15 AM 55.4 °F 55.4 °F 100% 29.99 in 3.0 mi Calm Calm - N/A   Partly Cloudy
3:53 AM 54.0 °F 54.0 °F 100% 29.99 in 2.5 mi NNW 3.5 mph - N/A   Partly Cloudy
4:05 AM 55.4 °F 55.4 °F 100% 29.99 in 5.0 mi North 3.5 mph - N/A   Clear
4:08 AM 55.4 °F 55.4 °F 100% 29.99 in 2.5 mi North 3.5 mph - N/A   Partly Cloudy
4:12 AM 55.4 °F 55.4 °F 100% 29.99 in 1.0 mi NNE 3.5 mph - N/A   Mist
4:19 AM 55.4 °F 55.4 °F 100% 29.99 in 0.5 mi North 3.5 mph - N/A Fog Fog
4:53 AM 55.0 °F 55.0 °F 100% 29.99 in 0.5 mi Calm Calm - N/A Fog Fog
5:01 AM 53.6 °F 53.6 °F 100% 29.99 in 2.0 mi Calm Calm - N/A   Overcast
5:17 AM 53.6 °F 53.6 °F 100% 29.99 in 0.8 mi Calm Calm - N/A   Mist
5:53 AM 54.0 °F 54.0 °F 100% 30.00 in 0.8 mi Calm Calm - N/A   Mist
6:53 AM 54.0 °F 54.0 °F 100% 30.00 in 0.2 mi Calm Calm - N/A Fog Fog
7:53 AM 59.0 °F 59.0 °F 100% 30.02 in 0.2 mi Calm Calm - N/A Fog Fog
8:34 AM 60.8 °F 60.8 °F 100% 30.02 in 1.8 mi Calm Calm - N/A   Overcast
8:42 AM 62.6 °F 62.6 °F 100% 30.02 in 3.0 mi East 4.6 mph - N/A   Overcast
8:53 AM 63.0 °F 63.0 °F 100% 30.02 in 6.0 mi East 3.5 mph - N/A   Overcast
9:42 AM 64.4 °F 64.4 °F 100% 30.03 in 10.0 mi Calm Calm - N/A   Overcast
9:53 AM 64.9 °F 64.9 °F 100% 30.03 in 10.0 mi NE 3.5 mph - N/A   Overcast
10:14 AM 69.8 °F 64.4 °F 83% 30.03 in 10.0 mi Variable 3.5 mph - N/A   Overcast
10:53 AM 70.0 °F 64.0 °F 81% 30.01 in 10.0 mi ENE 4.6 mph - N/A   Partly Cloudy
11:53 AM 73.9 °F 62.1 °F 66% 29.98 in 10.0 mi East 9.2 mph - N/A   Mostly Cloudy
12:53 PM 73.9 °F 59.0 °F 59% 29.96 in 10.0 mi ESE 11.5 mph - N/A   Clear
1:53 PM 75.0 °F 59.0 °F 57% 29.94 in 10.0 mi SSE 13.8 mph 18.4 mph N/A   Clear
2:53 PM 73.0 °F 60.1 °F 64% 29.94 in 10.0 mi East 8.1 mph - N/A   Mostly Cloudy
3:53 PM 72.0 °F 60.1 °F 66% 29.94 in 10.0 mi ESE 6.9 mph - N/A   Overcast
4:53 PM 70.0 °F 59.0 °F 68% 29.94 in 10.0 mi SE 5.8 mph - N/A   Overcast
5:53 PM 68.0 °F 60.1 °F 76% 29.95 in 10.0 mi East 3.5 mph - N/A   Overcast
6:53 PM 66.0 °F 61.0 °F 84% 29.95 in 10.0 mi Calm Calm - N/A   Scattered Clouds
7:53 PM 64.9 °F 62.1 °F 90% 29.96 in 10.0 mi Calm Calm - N/A   Overcast
8:53 PM 66.0 °F 64.0 °F 93% 29.96 in 10.0 mi ESE 4.6 mph - N/A   Overcast
9:53 PM 66.0 °F 64.9 °F 96% 29.96 in 10.0 mi ESE 4.6 mph - N/A   Mostly Cloudy
10:53 PM 66.0 °F 64.9 °F 96% 29.96 in 10.0 mi Variable 3.5 mph - N/A   Overcast
11:11 PM 66.2 °F 64.4 °F 94% 29.96 in 10.0 mi Calm Calm - N/A   Mostly Cloudy
11:53 PM 66.0 °F 66.0 °F 100% 29.95 in 10.0 mi SE 3.5 mph - N/A   Mostly Cloudy